Regional Weather Roundup
Issued by NWS Albany, NY

Home | Current Version | Previous Version | Text Only | Print | Product List | Glossary On
Versions: 1 2 3 4 5 6 7 8 9 10 11 12 13 14 15 16 17 18 19 20 21 22 23 24 25 26 27 28 29 30 31 32 33 34 35 36 37 38 39 40 41 42 43 44 45 46 47 48 49 50
000
ASUS41 KALY 291210
RWRALY

NEW YORK STATE HOURLY WEATHER ROUNDUP
NATIONAL WEATHER SERVICE ALBANY NY
800 AM EDT FRI JUL 29 2016

NOTE: "FAIR" INDICATES FEW OR NO CLOUDS BELOW 12,000 FEET WITH NO
SIGNIFICANT WEATHER AND/OR NO OBSTRUCTIONS TO VISIBILITY.

NYZ032-033-038>043-046>054-057>066-NYZ062>081-082-084-291300-
EAST


CITY           SKY/WX    TMP DP  RH WIND       PRES   REMARKS
ALBANY         CLOUDY    70  67  90 N5        29.89R
GLENS FALLS    CLOUDY    69  64  84 NE5       29.90R
POUGHKEEPSIE   CLOUDY    72  68  87 N3        29.87R
NEWBURGH       LGT RAIN  70  70 100 NE6       29.89R FOG
MONTGOMERY     MOSUNNY   72  70  93 N7        29.88R
WHITE PLAINS   LGT RAIN  69  66  90 NE5       29.84F
ISLIP          LGT RAIN  71  69  93 N12       29.82F FOG
NEW YORK CITY  LGT RAIN  72  68  87 NE13      29.84R FOG
CENTRAL PARK   LGT RAIN  70  67  90 VRB3      29.88R FOG
$$

NYZ005>009-017-018-044>046-055-056-291300-
CENTRAL


CITY           SKY/WX    TMP DP  RH WIND       PRES   REMARKS
FULTON         SUNNY     75  67  76 N8        29.91R
SYRACUSE       MOSUNNY   70  67  90 CALM      29.90R
ROME           SUNNY     69  66  90 CALM      29.91R
ELMIRA         SUNNY     69  61  75 W5        29.92R
BINGHAMTON     SUNNY     70  62  76 CALM      29.93R
MONTICELLO     CLOUDY    68  66  94 CALM      29.93R
$$

NYZ026>034-041>043-087-291300-
NORTH


CITY           SKY/WX    TMP DP  RH WIND       PRES   REMARKS
WATERTOWN      MOSUNNY   67  57  70 NE8       29.94R
FORT DRUM      NOT AVBL
MASSENA        SUNNY     67  57  70 N9        29.96S
SARANAC LAKE   CLOUDY    65  59  81 NE3       29.96S
PLATTSBURGH    PTSUNNY   68  60  75 N12       29.93R
$$

NYZ001>004-010>016-019>021-085-291300-
WEST


CITY           SKY/WX    TMP DP  RH WIND       PRES   REMARKS
NIAGARA FALLS  PTSUNNY   73  66  78 NE15      29.94R
BUFFALO        PTSUNNY   71  63  75 E5        29.94R
DUNKIRK        SUNNY     72  68  87 CALM      29.94R
JAMESTOWN      SUNNY     66  63  88 CALM      29.98R
WELLSVILLE     MOSUNNY   64  63  96 NW3       30.00R
ROCHESTER      PTSUNNY   74  65  73 NE15      29.94R
PENN YAN       CLOUDY    71  65  81 NW5       29.94R
$$

             KEY
       WCI = WIND CHILL INDEX
       VSB = VISIBILITY
       HX  = HEAT INDEX
$$



USA.gov is the U.S. government's official web portal to all federal, state and local government web resources and services.